LNI845 WAOO-WADD

Flight info

Callsign LNI845
Flight time 1h 0m
Altitude 33000
Route ATSIP1C ATSIP DCT KEVOK M522 DOBMA DOBMA1C
Aircraft B739/M-SDE2E3FGHIRWXY/LB1

Departure

Time 2026-05-05 16:05
Airport Syamsudin Noor International Airport (WAOO)

Arrival

Time 2026-05-05 17:06
Airport Denpasar I Gusti Ngurah Rai International Airport (WADD)
Time Latitude Longitude Altitude Speed Heading
2026-05-05 15:31 -3.43815 114.75815 74 ft 0 kts 11°
2026-05-05 15:56 -3.43817 114.75815 74 ft 2 kts 11°
2026-05-05 15:56 -3.43843 114.75809 74 ft 4 kts 17°
2026-05-05 15:56 -3.43869 114.75801 74 ft 4 kts 10°
2026-05-05 15:56 -3.43892 114.75801 74 ft 2 kts 338°
2026-05-05 15:57 -3.43912 114.75814 74 ft 4 kts 295°
2026-05-05 15:57 -3.43918 114.75838 74 ft 2 kts 280°
2026-05-05 15:57 -3.43920 114.75844 74 ft 0 kts 280°
2026-05-05 16:00 -3.43918 114.75837 74 ft 2 kts 280°
2026-05-05 16:00 -3.43914 114.75812 74 ft 5 kts 280°
2026-05-05 16:01 -3.43907 114.75773 74 ft 5 kts 280°
2026-05-05 16:01 -3.43905 114.75733 74 ft 5 kts 238°
2026-05-05 16:01 -3.43945 114.75717 74 ft 7 kts 191°
2026-05-05 16:01 -3.44003 114.75706 74 ft 9 kts 190°
2026-05-05 16:02 -3.44074 114.75693 74 ft 11 kts 190°
2026-05-05 16:02 -3.44119 114.75663 74 ft 9 kts 253°
2026-05-05 16:02 -3.44110 114.75597 74 ft 11 kts 280°
2026-05-05 16:02 -3.44093 114.75502 74 ft 17 kts 281°
2026-05-05 16:03 -3.44072 114.75387 74 ft 17 kts 281°
2026-05-05 16:03 -3.44053 114.75285 74 ft 13 kts 281°
2026-05-05 16:03 -3.44032 114.75224 74 ft 6 kts 307°
2026-05-05 16:03 -3.44028 114.75195 74 ft 3 kts 209°
2026-05-05 16:04 -3.44042 114.75206 74 ft 4 kts 95°
2026-05-05 16:04 -3.44044 114.75228 74 ft 1 kts 101°
2026-05-05 16:04 -3.44044 114.75229 74 ft 0 kts 101°
2026-05-05 16:04 -3.44048 114.75245 74 ft 10 kts 101°
2026-05-05 16:05 -3.44096 114.75507 74 ft 71 kts 100°
2026-05-05 16:05 -3.44222 114.76209 74 ft 132 kts 100°
2026-05-05 16:05 -3.44415 114.77265 269 ft 165 kts 101°
2026-05-05 16:05 -3.44688 114.78398 980 ft 167 kts 107°
2026-05-05 16:06 -3.45140 114.79486 1678 ft 175 kts 118°
2026-05-05 16:06 -3.45762 114.80552 2272 ft 178 kts 119°
2026-05-05 16:06 -3.46362 114.81652 2892 ft 182 kts 118°
2026-05-05 16:06 -3.46976 114.82768 3494 ft 187 kts 118°
2026-05-05 16:07 -3.47604 114.83927 4012 ft 198 kts 119°
2026-05-05 16:07 -3.48322 114.85237 4340 ft 223 kts 119°
2026-05-05 16:07 -3.49084 114.86653 4667 ft 247 kts 119°
2026-05-05 16:07 -3.49920 114.88289 5032 ft 272 kts 118°
2026-05-05 16:08 -3.50745 114.90015 5746 ft 284 kts 117°
2026-05-05 16:08 -3.51611 114.91835 6434 ft 296 kts 118°
2026-05-05 16:08 -3.52561 114.93700 7214 ft 303 kts 119°
2026-05-05 16:08 -3.53699 114.95473 8126 ft 302 kts 135°
2026-05-05 16:09 -3.55372 114.96730 8968 ft 300 kts 155°
2026-05-05 16:09 -3.57286 114.97561 9799 ft 301 kts 163°
2026-05-05 16:09 -3.59290 114.98231 10588 ft 305 kts 167°
2026-05-05 16:09 -3.61369 114.98837 11161 ft 318 kts 168°
2026-05-05 16:10 -3.63568 114.99461 11484 ft 339 kts 168°
2026-05-05 16:10 -3.65911 115.00130 11761 ft 359 kts 167°
2026-05-05 16:10 -3.68334 115.00810 12185 ft 371 kts 169°
2026-05-05 16:10 -3.70897 115.01231 12844 ft 373 kts 178°
2026-05-05 16:11 -3.73480 115.01259 13534 ft 373 kts 187°
2026-05-05 16:11 -3.81334 115.00383 15519 ft 383 kts 190°
2026-05-05 16:12 -3.84002 115.00068 16151 ft 387 kts 190°
2026-05-05 16:12 -3.89409 114.99433 17342 ft 395 kts 190°
2026-05-05 16:13 -3.97698 114.98461 18997 ft 405 kts 190°
2026-05-05 16:13 -4.00510 114.98132 19516 ft 408 kts 190°
2026-05-05 16:13 -4.03313 114.97804 20015 ft 411 kts 190°
2026-05-05 16:14 -4.09041 114.97134 20977 ft 417 kts 190°
2026-05-05 16:14 -4.14846 114.96454 21876 ft 423 kts 190°
2026-05-05 16:15 -4.20744 114.95764 22719 ft 429 kts 190°
2026-05-05 16:15 -4.26711 114.95065 23507 ft 434 kts 190°
2026-05-05 16:16 -4.32723 114.94388 24242 ft 440 kts 187°
2026-05-05 16:16 -4.38907 114.94416 24935 ft 448 kts 180°
2026-05-05 16:17 -4.45183 114.94786 25592 ft 453 kts 180°
2026-05-05 16:17 -4.48332 114.94971 25904 ft 455 kts 180°
2026-05-05 16:18 -4.54698 114.95340 26501 ft 459 kts 180°
2026-05-05 16:18 -4.57882 114.95522 26785 ft 461 kts 180°
2026-05-05 16:18 -4.64301 114.95888 27323 ft 465 kts 180°
2026-05-05 16:19 -4.67543 114.96071 27584 ft 467 kts 180°
2026-05-05 16:19 -4.70801 114.96255 27835 ft 469 kts 180°
2026-05-05 16:19 -4.77341 114.96624 28315 ft 473 kts 180°
2026-05-05 16:20 -4.83947 114.96996 28762 ft 476 kts 180°
2026-05-05 16:20 -4.90548 114.97367 29379 ft 474 kts 180°
2026-05-05 16:21 -4.97140 114.97738 29981 ft 473 kts 180°
2026-05-05 16:22 -5.06993 114.98292 30847 ft 472 kts 180°
2026-05-05 16:22 -5.13509 114.98658 31398 ft 471 kts 180°
2026-05-05 16:23 -5.20037 114.99025 31930 ft 470 kts 180°
2026-05-05 16:23 -5.23304 114.99209 32192 ft 469 kts 180°
2026-05-05 16:23 -5.29827 114.99576 32705 ft 468 kts 180°
2026-05-05 16:24 -5.33039 114.99756 32892 ft 469 kts 180°
2026-05-05 16:24 -5.36302 114.99940 32896 ft 470 kts 180°
2026-05-05 16:25 -5.46098 115.00491 32905 ft 467 kts 180°
2026-05-05 16:25 -5.55797 115.01037 32905 ft 467 kts 180°
2026-05-05 16:26 -5.68789 115.01769 32905 ft 467 kts 180°
2026-05-05 16:27 -5.75283 115.02135 32905 ft 467 kts 180°
2026-05-05 16:27 -5.81775 115.02501 32905 ft 467 kts 180°
2026-05-05 16:28 -5.88259 115.02866 32905 ft 467 kts 180°
2026-05-05 16:28 -5.94727 115.03231 32905 ft 467 kts 180°
2026-05-05 16:29 -6.01206 115.03596 32905 ft 466 kts 180°
2026-05-05 16:29 -6.07685 115.03961 32905 ft 465 kts 180°
2026-05-05 16:30 -6.14154 115.04326 32905 ft 465 kts 180°
2026-05-05 16:30 -6.20620 115.04691 32905 ft 465 kts 180°
2026-05-05 16:31 -6.26003 115.04995 32905 ft 465 kts 180°
2026-05-05 16:31 -6.32456 115.05360 32720 ft 462 kts 180°
2026-05-05 16:32 -6.35664 115.05541 31946 ft 461 kts 180°
2026-05-05 16:32 -6.38859 115.05721 31311 ft 458 kts 180°
2026-05-05 16:32 -6.42030 115.05900 30704 ft 454 kts 180°
2026-05-05 16:32 -6.45171 115.06078 30104 ft 449 kts 180°
2026-05-05 16:33 -6.48285 115.06254 29512 ft 445 kts 180°
2026-05-05 16:33 -6.51366 115.06428 28923 ft 441 kts 180°
2026-05-05 16:33 -6.54375 115.06598 28349 ft 437 kts 180°
2026-05-05 16:33 -6.57406 115.06769 27770 ft 433 kts 180°
2026-05-05 16:34 -6.59014 115.06860 27463 ft 431 kts 180°
2026-05-05 16:34 -6.61147 115.06980 27051 ft 429 kts 180°
2026-05-05 16:35 -6.64113 115.07148 26483 ft 425 kts 180°
2026-05-05 16:35 -6.67050 115.07314 25919 ft 421 kts 180°
2026-05-05 16:35 -6.69967 115.07479 25357 ft 417 kts 180°
2026-05-05 16:35 -6.72821 115.07641 24806 ft 414 kts 180°
2026-05-05 16:36 -6.75684 115.07803 24254 ft 410 kts 180°
2026-05-05 16:36 -6.78525 115.07963 23706 ft 407 kts 180°
2026-05-05 16:36 -6.81343 115.08123 23161 ft 403 kts 180°
2026-05-05 16:36 -6.84132 115.08296 22747 ft 397 kts 179°
2026-05-05 16:37 -6.86858 115.08500 22635 ft 392 kts 179°
2026-05-05 16:37 -6.89590 115.08706 22490 ft 394 kts 179°
2026-05-05 16:37 -6.92345 115.08914 22337 ft 398 kts 179°
2026-05-05 16:37 -6.95116 115.09122 22179 ft 399 kts 179°
2026-05-05 16:38 -6.97884 115.09330 22020 ft 398 kts 179°
2026-05-05 16:38 -7.00609 115.09534 21863 ft 397 kts 179°
2026-05-05 16:38 -7.03367 115.09740 21702 ft 396 kts 179°
2026-05-05 16:38 -7.06104 115.09945 21542 ft 395 kts 179°
2026-05-05 16:39 -7.08848 115.10150 21383 ft 394 kts 179°
2026-05-05 16:39 -7.11574 115.10353 21225 ft 393 kts 179°
2026-05-05 16:39 -7.14300 115.10557 21067 ft 392 kts 179°
2026-05-05 16:39 -7.17024 115.10760 20908 ft 391 kts 179°
2026-05-05 16:40 -7.19734 115.10963 20749 ft 390 kts 179°
2026-05-05 16:40 -7.22442 115.11165 20593 ft 389 kts 179°
2026-05-05 16:40 -7.25112 115.11365 20438 ft 388 kts 179°
2026-05-05 16:40 -7.27834 115.11568 20279 ft 387 kts 179°
2026-05-05 16:41 -7.30486 115.11767 20124 ft 386 kts 179°
2026-05-05 16:41 -7.33194 115.11969 19967 ft 385 kts 179°
2026-05-05 16:41 -7.35831 115.12166 19815 ft 384 kts 179°
2026-05-05 16:41 -7.38496 115.12365 19659 ft 383 kts 179°
2026-05-05 16:42 -7.41165 115.12565 19503 ft 383 kts 179°
2026-05-05 16:42 -7.43812 115.12762 19350 ft 382 kts 179°
2026-05-05 16:42 -7.46460 115.12960 19197 ft 381 kts 179°
2026-05-05 16:42 -7.49105 115.13158 19043 ft 380 kts 179°
2026-05-05 16:43 -7.51737 115.13355 18889 ft 379 kts 179°
2026-05-05 16:43 -7.54373 115.13552 18736 ft 378 kts 179°
2026-05-05 16:43 -7.56964 115.13745 18586 ft 377 kts 179°
2026-05-05 16:43 -7.59581 115.13941 18433 ft 376 kts 179°
2026-05-05 16:44 -7.62194 115.14136 18281 ft 376 kts 179°
2026-05-05 16:44 -7.64794 115.14331 18129 ft 375 kts 179°
2026-05-05 16:44 -7.67399 115.14526 17979 ft 374 kts 179°
2026-05-05 16:44 -7.69995 115.14720 17828 ft 373 kts 179°
2026-05-05 16:45 -7.72583 115.14914 17677 ft 372 kts 179°
2026-05-05 16:45 -7.75166 115.15107 17526 ft 371 kts 179°
2026-05-05 16:45 -7.77743 115.15300 17377 ft 370 kts 179°
2026-05-05 16:45 -7.80312 115.15493 17228 ft 370 kts 179°
2026-05-05 16:46 -7.82869 115.15684 17078 ft 369 kts 179°
2026-05-05 16:46 -7.85373 115.15630 16927 ft 362 kts 194°
2026-05-05 16:46 -7.87720 115.14785 16792 ft 354 kts 213°
2026-05-05 16:46 -7.89624 115.13275 16617 ft 348 kts 228°
2026-05-05 16:47 -7.91213 115.11433 16465 ft 346 kts 233°
2026-05-05 16:47 -7.92671 115.09510 16318 ft 344 kts 236°
2026-05-05 16:47 -7.94051 115.07534 16176 ft 343 kts 237°
2026-05-05 16:47 -7.95389 115.05580 16037 ft 342 kts 237°
2026-05-05 16:48 -7.96756 115.03583 15896 ft 342 kts 237°
2026-05-05 16:48 -7.98091 115.01631 15759 ft 341 kts 237°
2026-05-05 16:48 -7.99440 114.99657 15622 ft 340 kts 237°
2026-05-05 16:48 -8.00780 114.97695 15486 ft 340 kts 237°
2026-05-05 16:49 -8.02121 114.95732 15349 ft 339 kts 237°
2026-05-05 16:49 -8.03447 114.93792 15212 ft 338 kts 237°
2026-05-05 16:49 -8.04784 114.91836 15076 ft 338 kts 237°
2026-05-05 16:49 -8.06116 114.89886 14941 ft 337 kts 237°
2026-05-05 16:50 -8.07446 114.87936 14744 ft 336 kts 237°
2026-05-05 16:50 -8.08773 114.85995 14545 ft 335 kts 237°
2026-05-05 16:50 -8.10093 114.84062 14344 ft 334 kts 237°
2026-05-05 16:50 -8.11393 114.82157 14145 ft 333 kts 237°
2026-05-05 16:51 -8.12716 114.80215 13942 ft 332 kts 237°
2026-05-05 16:51 -8.14023 114.78297 13741 ft 331 kts 237°
2026-05-05 16:51 -8.15325 114.76387 13540 ft 330 kts 237°
2026-05-05 16:51 -8.16623 114.74480 13340 ft 329 kts 237°
2026-05-05 16:52 -8.17919 114.72576 13140 ft 328 kts 237°
2026-05-05 16:52 -8.19204 114.70687 12943 ft 327 kts 237°
2026-05-05 16:52 -8.20480 114.68812 12746 ft 326 kts 237°
2026-05-05 16:52 -8.21758 114.66933 12588 ft 325 kts 237°
2026-05-05 16:53 -8.23034 114.65058 12404 ft 324 kts 237°
2026-05-05 16:53 -8.24566 114.63382 12208 ft 328 kts 219°
2026-05-05 16:53 -8.26615 114.62356 12033 ft 330 kts 199°
2026-05-05 16:53 -8.28901 114.62106 11602 ft 334 kts 179°
2026-05-05 16:54 -8.31162 114.62633 11206 ft 335 kts 163°
2026-05-05 16:54 -8.33269 114.63614 10877 ft 330 kts 156°
2026-05-05 16:54 -8.35286 114.64654 10556 ft 323 kts 157°
2026-05-05 16:54 -8.37258 114.65633 10248 ft 316 kts 158°
2026-05-05 16:55 -8.39247 114.66556 10032 ft 305 kts 160°
2026-05-05 16:55 -8.41154 114.67389 9710 ft 301 kts 160°
2026-05-05 16:55 -8.43067 114.68220 9377 ft 296 kts 160°
2026-05-05 16:55 -8.44943 114.69035 9083 ft 292 kts 160°
2026-05-05 16:56 -8.46795 114.69842 8795 ft 288 kts 160°
2026-05-05 16:56 -8.48629 114.70643 8534 ft 286 kts 160°
2026-05-05 16:56 -8.50462 114.71443 8264 ft 286 kts 160°
2026-05-05 16:56 -8.52284 114.72239 7991 ft 284 kts 160°
2026-05-05 16:57 -8.54097 114.73053 7713 ft 285 kts 156°
2026-05-05 16:57 -8.55777 114.74126 7435 ft 286 kts 147°
2026-05-05 16:57 -8.57349 114.75375 7154 ft 288 kts 144°
2026-05-05 16:57 -8.58875 114.76682 6872 ft 285 kts 142°
2026-05-05 16:58 -8.60374 114.77986 6594 ft 285 kts 142°
2026-05-05 16:58 -8.61879 114.79295 6315 ft 284 kts 142°
2026-05-05 16:58 -8.63361 114.80582 6039 ft 278 kts 143°
2026-05-05 16:58 -8.64814 114.81843 5770 ft 273 kts 143°
2026-05-05 16:59 -8.66243 114.83083 5507 ft 267 kts 143°
2026-05-05 16:59 -8.67624 114.84281 5250 ft 262 kts 142°
2026-05-05 16:59 -8.69004 114.85478 4992 ft 255 kts 142°
2026-05-05 16:59 -8.70338 114.86635 4745 ft 249 kts 142°
2026-05-05 17:00 -8.71617 114.87744 4509 ft 242 kts 141°
2026-05-05 17:00 -8.72881 114.88838 4276 ft 236 kts 141°
2026-05-05 17:00 -8.74109 114.89903 4047 ft 230 kts 140°
2026-05-05 17:00 -8.75167 114.91097 3809 ft 226 kts 123°
2026-05-05 17:01 -8.75651 114.92566 3603 ft 220 kts 98°
2026-05-05 17:01 -8.75674 114.93984 3432 ft 211 kts 89°
2026-05-05 17:01 -8.75607 114.95301 3227 ft 205 kts 89°
2026-05-05 17:01 -8.75573 114.96714 3015 ft 198 kts 90°
2026-05-05 17:02 -8.75554 114.98088 2834 ft 190 kts 90°
2026-05-05 17:02 -8.75515 114.99377 2649 ft 179 kts 89°
2026-05-05 17:02 -8.75469 115.00617 2465 ft 174 kts 89°
2026-05-05 17:02 -8.75423 115.01820 2297 ft 170 kts 89°
2026-05-05 17:03 -8.75377 115.03013 2136 ft 170 kts 89°
2026-05-05 17:03 -8.75331 115.04191 1993 ft 166 kts 89°
2026-05-05 17:03 -8.75287 115.05335 1916 ft 159 kts 89°
2026-05-05 17:03 -8.75244 115.06446 1750 ft 153 kts 89°
2026-05-05 17:04 -8.75203 115.07498 1554 ft 150 kts 89°
2026-05-05 17:04 -8.75162 115.08558 1351 ft 147 kts 89°
2026-05-05 17:04 -8.75122 115.09584 1189 ft 150 kts 89°
2026-05-05 17:04 -8.75080 115.10647 939 ft 150 kts 89°
2026-05-05 17:05 -8.75041 115.11696 702 ft 150 kts 89°
2026-05-05 17:05 -8.74999 115.12745 509 ft 146 kts 88°
2026-05-05 17:05 -8.74964 115.13749 349 ft 143 kts 89°
2026-05-05 17:05 -8.74925 115.14745 174 ft 139 kts 89°
2026-05-05 17:06 -8.74880 115.15709 28 ft 134 kts 89°
2026-05-05 17:06 -8.74848 115.16525 22 ft 83 kts 87°
2026-05-05 17:06 -8.74831 115.16918 22 ft 48 kts 88°
2026-05-05 17:06 -8.74823 115.17167 22 ft 22 kts 86°
2026-05-05 17:07 -8.74813 115.17272 22 ft 11 kts 69°
2026-05-05 17:07 -8.74776 115.17311 22 ft 5 kts 16°
2026-05-05 17:07 -8.74741 115.17314 22 ft 5 kts 359°
2026-05-05 17:07 -8.74695 115.17311 22 ft 9 kts 345°
2026-05-05 17:08 -8.74654 115.17266 22 ft 9 kts 278°
2026-05-05 17:08 -8.74655 115.17193 22 ft 13 kts 268°
2026-05-05 17:08 -8.74659 115.17092 22 ft 12 kts 268°
2026-05-05 17:08 -8.74663 115.16993 22 ft 16 kts 268°
2026-05-05 17:09 -8.74666 115.16881 22 ft 18 kts 268°
2026-05-05 17:09 -8.74671 115.16737 22 ft 21 kts 267°
2026-05-05 17:09 -8.74677 115.16610 22 ft 18 kts 267°
2026-05-05 17:09 -8.74684 115.16472 22 ft 15 kts 267°
2026-05-05 17:10 -8.74689 115.16362 22 ft 16 kts 269°
2026-05-05 17:10 -8.74692 115.16251 22 ft 17 kts 268°
2026-05-05 17:10 -8.74696 115.16153 22 ft 11 kts 267°
2026-05-05 17:10 -8.74689 115.16095 22 ft 5 kts 306°
2026-05-05 17:11 -8.74665 115.16075 22 ft 4 kts 332°
2026-05-05 17:11 -8.74635 115.16068 22 ft 5 kts 356°
2026-05-05 17:11 -8.74596 115.16067 22 ft 6 kts 358°
2026-05-05 17:11 -8.74548 115.16066 22 ft 5 kts 358°
2026-05-05 17:12 -8.74522 115.16065 22 ft 1 kts
2026-05-05 17:12 -8.74507 115.16071 22 ft 3 kts 31°
2026-05-05 17:12 -8.74495 115.16091 22 ft 3 kts 78°
2026-05-05 17:12 -8.74493 115.16104 22 ft 2 kts 84°
2026-05-05 17:13 -8.74492 115.16114 22 ft 0 kts 86°
2026-05-05 17:13 -8.74492 115.16121 22 ft 1 kts 87°
2026-05-05 17:13 -8.74492 115.16127 22 ft 1 kts 87°
2026-05-05 17:13 -8.74492 115.16132 22 ft 1 kts 87°